Погода Усть-Ишим

Погода Усть-Ишим : погода сейчас, прогноз погоды и архив. Всё, что Вы хотите узнать о погоде Усть-Ишим!

Хотите узнать прогноз погоды Усть-Ишим? Тогда Вам сюда: Погода Усть-Ишим

Поиск расширенной информации на нашем сайте:

Другие новости

Новости СМИ2

Главная страница сайта

Новости сайта

03.07.2017

Напоминаем, что на нашем специализированном сайте Метеоцентр.Азия вы можете получить высокодетализированные автоматические прогнозы погоды по пунктам России, СНГ и мира в авиационном формате (включающие направление и скорость ветра, видимость, явления погоды, количество и форму облачности, нижнюю и верхнюю границу облачности).


Погода Усть-Ишим - сегодня

Время (UTC), дата Ветер
(°,м/с) 
Видим.   Явления Облачность Т
(°С)
Тd
(°С)
f(%) Тe
(°С)
Pmin
(гПа)
dP
(гПа)
Po
(мм)
O2
(г/м3)
Тmin Tmax R s Состояние
почвы
21 20.04.18 340 (С) 10 км  слаб. дождь  10/8 300 м средняя 
[Frnb|As op]
+2.1 +2.1 100 +1  998  0.4  743  297           
00 21.04.18 010 (С) 4000 м  слаб. снег{дождь}  10/8 300 м средняя 
[Frnb|As op]
+0.3 +0.3 100 -1  998.3  0.3  744  299           
03 21.04.18 360 (С) 2000 м  снег  10/10 300 м 
[Frnb|Ns]
-0.6 -0.6 100 -3  999.3  744  301  -0.7    13  равномерный
мокрый или
старый снег
100% 
09 21.04.18 020 (С) 1500 м  снег  10/10 300 м 
[Frnb|Ns]
-0.5 -0.5 100 -3  1002.5  747  301           
12 21.04.18 040 (СВ) 7000 м  слаб. снег  10/0 средняя 
[As op]
+0.3 +0.1 99 -1  1002.8  0.3  747  301           
15 21.04.18 010 (С) 20000 м  {снег}  10/6 300 м средняя 
[Frnb|As op]
-0.4 -0.5 99 -2  1003.6  0.8  748  302    +0.4     
18 21.04.18 350 (С) 20000 м  {снег}  8/0 верхняя 
[Ci fib]
-2.2 -2.2 100 -3  1003.8  0.2  748  304           
21 21.04.18 350 (С) 20000 м    ясно 
-4.1 -4.1 100 -5  1004.1  0.2  748  306           
00 22.04.18 340 (С) 20000 м    ясно 
-5.2 -5.2 100 -7  1005.4  1.3  749  308           
03 22.04.18 330 (СЗ) 50000 м    3/0 верхняя 
[Ci fib]
+0.2 -2.5 82 +1  1007.2  1.9  750  302  -5.5      17  мокрый или
старый снег
50-90% 
06 22.04.18 250 (З) 50000 м    8/8 1000 м кучево-дожд. 
[Cb cap]
+2.1 -3.2 68 +1  1008.8  1.7  752  301           
09 22.04.18 140 (ЮВ) 50000 м    8/8 1000 м 
[Cu Sc]
+3.3 -4.9 55 +4  1010  1.2  752  300           
12 22.04.18 130 (ЮВ) 50000 м    6/6 1000 м 
[Sc]
+3.9 -4.7 53 +3  1010.6  0.6  753  300           
15 22.04.18 110 (В) 50000 м    4/0 средняя, верхняя 
[Ac lent|Ci fib]
+1.9 -4.4 63 1011.1  0.5  753  302    +4.9       
18 22.04.18 100 (В) 20000 м    ясно 
-1.4 -4.5 79 -1  1011.8  0.6  754  306           
21 22.04.18 100 (В) 20000 м    ясно 
-2.2 -5.1 80 -3  1011.7  0.1  754  307           
00 23.04.18 100 (В) 20000 м    4/0 средняя 
[Ac lent]
-3.2 -4.6 90 -4  1011.6  0.1  753  308           
03 23.04.18 100 (В) 50000 м    4/0 средняя, верхняя 
[Ac lent|Ci fib]
+0.7 -3 76 -1  1011  -0.3  753  303  -3.2      11  мокрый или
старый снег
10-40% 
06 23.04.18 130 (ЮВ) 50000 м    10/10 600 м 
[Sc]
+4.1 -0.8 70 +3  1009.7  -1.2  752  299           
09 23.04.18 110 (В) 50000 м    8/3 600 м средняя 
[Sc|Ac lent]
+8 +0.8 60 +8  1008.8  -0.8  752  294           
12 23.04.18 150 (ЮВ) 50000 м    10/3 600 м средняя, верхняя 
[Sc|Ac lent|Ci fib]
+7.8 +1.1 63 +7  1008.3  -0.5  751  294           
15 23.04.18 110 (В) 50000 м    10/0 средняя, верхняя 
[Ac lent|Cs]
+6.2 +1.6 72 +6  1008.5  0.2  751  296    +8.5       
18 23.04.18 100 (В) 20000 м    10/0 верхняя 
[Cs]
+4.1 +2 86 +3  1007.7  -0.9  751  298           
21 23.04.18 100 (В) 20000 м    10/0 средняя 
[As op]
+3.4 +2.5 94 +2  1006.4  -1.3  750  298           
00 24.04.18 110 (В) 20000 м    10/0 средняя 
[Ac As]
+3 +2.6 97 +2  1004.1  -2.3  748  298           
Время (UTC), дата Ветер
(°,м/с) 
Видим.   Явления Облачность Т
(°С)
Тd
(°С)
f(%) Тe
(°С)
Pmin
(гПа)
dP
(гПа)
Po
(мм)
O2
(г/м3)
Тmin Tmax R s Состояние
почвы

Для получения пояснительной информации подведите курсор к названию столбца.

ПОГОДА Усть-Ишим - архив

Всё, что Вы хотите узнать о погоде Усть-Ишим - удобно и подробно!

Выберите нужную дату (начиная с 1 января 2015* года) и нажмите кнопку "Найти".
Будут отображены архивные сводки погоды по пункту Усть-Ишим, начиная с указанной даты.


Отображать данные в формате CSV (для использования в таблицах Excel)


Внимание! Наш архив погоды предназначен исключительно для личного некоммерческого использования в познавательных целях. Если Вам необходимы официальные справки о состоянии погоды (для производственных, юридических, коммерческих и т.п. целей), обращайтесь в органы Росгидромета.

*Примечание: данная дата относится к архиву по метеостанциям СССР (Россия, СНГ, Балтия).
Архив по метеостанциям Зарубежной Европы и Азии (кроме Китая) хранится 10 дней, по другим регионам земного шара (Китай, Африка, Америка, Австралия, Океания) - 1 день.

Усть-Ишим - район местоположения метеостанции


Название, широта, долгота, высота метеостанции:
Усть-Ишим 57.7°ш. 71.2°д. 56 м над ур. моря [Российская Федерация]

Дополнительная информация

В oтличие oт бoльшинства пoгoдных сайтoв мы публикуем пoдрoбную метеoинфoрмацию в детальнoм прoфессиoнальнoм фoрмате.

Характеристики температуры и влажнoсти вoздуха измеряются на высoте 2 м в тени вдали oт зданий и деревьев.
Скoрoсть ветра измеряется на высoте 10 м (на урoвне рoста челoвека скoрoсть ветра ниже в 1.5-2 раза). Если метеoстанция нахoдится в гoрoде или в лесу, тo скoрoсть ветра занижена на 2-4 м/с пo сравнению с oткрытым местoм. Скoрoсть ветра над акватoриями крупных рек и oзёр, а также на вершинах хoлмoв на 2-5 м/с выше, чем в oбычных услoвиях.
Атмoсфернoе давление в разных тoчках местнoсти мoжет значительнo oтличаться oт давления на метеoстанции, в зависимoсти oт услoвий рельефа (при пoдъёме на 10 м давление пoнижается примернo на 1 мм рт.ст.).